[[{"header":{"parameterUnit":"m.s-1","parameterCategory":1,"la1":30.2991,"la2":30.254,"lo1":-89.0895,"lo2":-89.0444,"dy":0.0017,"dx":0.0017,"nx":28,"ny":28,"refTime":"2024-07-18T03:00:00:Z","depth":0,"parameterNumber":2,"parameterNumberName":"U-component_of_WINDS"},"data":[0,0,0,0,0,0,0,0,0,0,0,0,0,0,0,0,0,0,0,0,0,0,0,0,0,0,0,0,0,0,0,0,0,0,0,0,0,0,0,0,0,0,0,0,0,0,0,0,0,0,0,0,0,0,0,0,0,0,1.8426,1.8426,0,1.8481,1.8482,1.8483,1.8536,1.8537,1.8537,1.8538,1.859,1.8591,1.8592,0,0,0,0,0,0,0,0,0,0,0,0,0,1.8361,1.8362,1.8426,1.8426,1.8427,1.8481,1.8482,1.8483,1.8536,1.8537,1.8538,1.8538,1.859,1.8591,1.8592,0,0,0,0,0,0,0,0,0,0,0,0,0,1.84,1.8362,1.8425,1.846,1.8464,1.8481,1.8482,1.8483,1.8536,1.8537,1.8538,1.8539,1.859,1.8591,1.8592,1.8578,0,0,1.8595,1.8596,0,0,0,0,0,0,0,0,1.8398,1.8402,1.8454,1.8458,1.8462,1.8503,1.8479,1.8515,1.8535,1.8508,1.8538,1.8539,1.856,1.8564,1.8572,1.8581,1.8583,1.8596,1.8596,1.8597,1.8597,0,0,0,0,0,0,0,1.8395,1.84,1.8448,1.8455,1.846,1.8472,1.8478,1.8486,1.8527,1.8511,1.8515,1.8521,1.8562,1.8571,1.8573,1.8584,1.8596,1.8597,1.8597,1.8598,1.8584,1.8583,0,0,0,0,0,0,1.8388,1.8398,1.8446,1.8449,1.8432,1.8472,1.8479,1.8489,1.8528,1.8535,1.852,1.8523,1.8568,1.8572,1.8575,1.8562,1.8597,1.8598,1.8598,1.8585,1.8584,1.8582,0,0,0,0,0,0,1.8386,1.8391,1.8444,1.8425,1.8432,1.8472,1.8482,1.8489,1.8498,1.8535,1.8542,1.8521,1.8569,1.8574,1.8577,1.8564,1.8598,1.8599,1.8586,1.8584,1.8583,1.8534,0,0,0,0,0,0,1.8384,1.839,1.8386,1.8424,1.8433,1.8446,1.8481,1.849,1.85,1.8505,1.8538,1.8544,1.857,1.8576,1.8579,1.8566,1.86,1.8587,1.8585,1.8584,1.8537,1.8531,1.8525,0,0,0,0,0,1.8381,1.8369,1.8386,1.8391,1.8429,1.8445,1.845,1.8482,1.8499,1.8494,1.8518,1.8543,1.8565,1.8575,1.8579,1.8567,1.8588,1.8586,1.8584,1.8539,1.8532,1.8526,0,0,0,0,0,0,1.8327,1.8375,1.8394,1.8394,1.8415,1.8454,1.8449,1.8473,1.8488,1.8492,1.853,1.8537,1.8536,1.8552,1.8562,1.8556,1.858,1.8579,1.8545,1.8538,1.8533,1.8528,1.8601,0,0,0,0,0,1.8315,1.8326,1.8366,1.8362,1.8372,1.8409,1.8417,1.844,1.8463,1.8471,1.8496,1.8515,1.8527,1.8534,1.8547,1.854,1.8547,1.8533,1.8528,1.8523,1.852,1.8518,1.8512,1.8575,1.8575,1.8575,0,0,1.829,1.8318,1.8322,1.8352,1.8371,1.8379,1.8416,1.8423,1.8429,1.8472,1.8477,1.8496,1.852,1.8519,1.8519,1.8532,1.8505,1.852,1.8516,1.8516,1.8514,1.8508,1.8503,1.8573,1.8574,1.8574,0,0,1.825,1.8272,1.8271,1.829,1.8319,1.8344,1.8344,1.8379,1.8394,1.84,1.8432,1.844,1.8459,1.8475,1.8486,1.8453,1.8475,1.8456,1.8426,1.8422,1.8417,1.8413,1.84,1.8395,1.8453,1.8453,1.8453,0,1.8214,1.823,1.8267,1.8273,1.8285,1.8326,1.8325,1.8341,1.8372,1.8378,1.8393,1.8419,1.8439,1.8441,1.8433,1.8441,1.844,1.8451,1.8416,1.8412,1.8408,1.8396,1.8391,1.8451,1.8451,1.8451,1.8452,0,1.8185,1.8195,1.8191,1.8222,1.8233,1.8235,1.8272,1.8279,1.8301,1.8324,1.8329,1.8355,1.8373,1.8376,1.8397,1.8381,1.8388,1.8409,1.8434,1.8399,1.8388,1.8384,1.8447,1.8448,1.8449,1.8449,0,0,1.8109,1.8163,1.816,1.8175,1.8211,1.8219,1.8222,1.8242,1.8247,1.8268,1.8271,1.8287,1.8306,1.8319,1.8342,1.8339,1.831,1.836,1.8362,1.8349,1.8293,1.8277,1.8271,1.8327,1.8326,1.8325,1.8291,0,1.8074,1.8085,1.8118,1.8118,1.8128,1.8168,1.8171,1.8192,1.8214,1.8224,1.8247,1.8258,1.8283,1.8291,1.829,1.8314,1.8299,1.8317,1.8328,1.8328,1.8319,1.8266,1.8248,1.8214,1.8287,1.8287,1.8286,0,1.8033,1.8053,1.8054,1.809,1.8095,1.8098,1.8119,1.8128,1.8154,1.8169,1.8184,1.8211,1.8215,1.824,1.8247,1.8258,1.8265,1.8277,1.8277,1.8277,1.8304,1.8264,1.8205,1.8199,1.828,1.8281,1.8281,0,1.7977,1.8003,1.8008,1.8019,1.8062,1.8062,1.808,1.8106,1.8116,1.8134,1.8141,1.8159,1.8168,1.8181,1.8211,1.8226,1.8214,1.8241,1.8226,1.8225,1.822,1.8219,1.8159,1.8226,1.8226,1.8226,1.8226,0,1.7932,1.7931,1.7983,1.7985,1.7985,1.8024,1.8022,1.8043,1.8066,1.8073,1.8108,1.8113,1.8154,1.8163,1.8186,1.8188,1.8192,1.8204,1.821,1.82,1.8198,1.8204,1.8206,1.8225,1.8225,1.8226,1.8226,0,1.7869,1.7904,1.7911,1.7951,1.7961,1.7959,1.7993,1.7996,1.8021,1.8028,1.8032,1.8069,1.8082,1.8115,1.8135,1.8151,1.8145,1.8157,1.8137,1.8141,1.8123,1.8124,1.8063,1.8057,1.8129,1.8128,1.8127,0,1.7837,1.7838,1.7879,1.7886,1.7903,1.7915,1.7926,1.7964,1.7973,1.8003,1.8002,1.8018,1.8032,1.805,1.8078,1.8094,1.8106,1.8084,1.8109,1.8099,1.8105,1.8104,1.8103,1.8078,1.8077,1.8076,1.8076,0,1.7778,1.7795,1.7811,1.7832,1.7845,1.7863,1.7883,1.7887,1.7929,1.7938,1.7953,1.7964,1.7986,1.8001,1.8021,1.8038,1.8063,1.8068,1.8065,1.8054,1.8042,1.8047,1.8121,1.8069,1.8069,1.807,1.807,1.8071,1.7729,1.7731,1.776,1.7776,1.7796,1.7814,1.7819,1.7845,1.7858,1.788,1.7902,1.7914,1.7939,1.7969,1.7984,1.7993,1.8006,1.8002,1.8001,1.7999,1.7994,1.8042,1.7997,1.7997,1.7997,1.7998,1.7998,0,1.767,1.7692,1.7706,1.7734,1.7746,1.7772,1.7795,1.7803,1.7814,1.7836,1.785,1.7866,1.7881,1.7911,1.7928,1.793,1.7942,1.7933,1.7932,1.7935,1.7982,1.7982,1.7923,1.7923,1.7923,1.7923,1.7923,1.7923,1.7641,1.7646,1.7667,1.7682,1.7703,1.7716,1.7728,1.7744,1.7762,1.7779,1.7792,1.7813,1.7838,1.7857,1.7872,1.788,1.7884,1.7871,1.7883,1.7925,1.7932,1.7939,1.7939,1.7872,1.7872,1.7836,1.7835,1.7835]},{"header":{"parameterUnit":"m.s-1","parameterCategory":1,"la1":30.2991,"la2":30.254,"lo1":-89.0895,"lo2":-89.0444,"dy":0.0017,"dx":0.0017,"nx":28,"ny":28,"refTime":"2024-07-18T03:00:00:Z","depth":0,"parameterNumber":3,"parameterNumberName":"V-component_of_WINDS"},"data":[0,0,0,0,0,0,0,0,0,0,0,0,0,0,0,0,0,0,0,0,0,0,0,0,0,0,0,0,0,0,0,0,0,0,0,0,0,0,0,0,0,0,0,0,0,0,0,0,0,0,0,0,0,0,0,0,0,0,-1.3484,-1.3484,0,-1.3482,-1.3481,-1.3481,-1.3436,-1.3435,-1.3434,-1.3433,-1.3431,-1.3431,-1.3433,0,0,0,0,0,0,0,0,0,0,0,0,0,-1.3451,-1.3452,-1.3484,-1.3484,-1.3484,-1.3482,-1.3481,-1.3481,-1.3436,-1.3435,-1.3434,-1.3432,-1.343,-1.3431,-1.3433,0,0,0,0,0,0,0,0,0,0,0,0,0,-1.3459,-1.3452,-1.3484,-1.3461,-1.3459,-1.3482,-1.3481,-1.3481,-1.3437,-1.3435,-1.3433,-1.3432,-1.343,-1.3431,-1.3433,-1.3477,0,0,-1.3437,-1.3438,0,0,0,0,0,0,0,0,-1.3458,-1.346,-1.3465,-1.3463,-1.3461,-1.3457,-1.3469,-1.348,-1.3437,-1.3445,-1.3433,-1.3431,-1.3441,-1.3441,-1.3445,-1.3477,-1.3477,-1.3438,-1.3438,-1.3439,-1.344,0,0,0,0,0,0,0,-1.3458,-1.346,-1.3483,-1.3465,-1.3462,-1.3452,-1.3451,-1.3471,-1.3453,-1.3444,-1.3441,-1.3441,-1.3439,-1.3443,-1.3444,-1.3477,-1.3438,-1.3439,-1.344,-1.344,-1.3546,-1.3548,0,0,0,0,0,0,-1.346,-1.346,-1.3483,-1.3483,-1.3455,-1.3454,-1.3453,-1.346,-1.3452,-1.345,-1.3443,-1.3439,-1.3442,-1.3443,-1.3444,-1.3496,-1.3439,-1.3441,-1.3441,-1.3545,-1.3547,-1.3549,0,0,0,0,0,0,-1.346,-1.3463,-1.3483,-1.347,-1.3472,-1.3456,-1.3465,-1.3461,-1.3465,-1.3451,-1.3448,-1.345,-1.344,-1.3442,-1.3469,-1.3495,-1.3441,-1.3443,-1.3542,-1.3545,-1.3548,-1.36,0,0,0,0,0,0,-1.3459,-1.3463,-1.3479,-1.3471,-1.3473,-1.3508,-1.3466,-1.3462,-1.3468,-1.3463,-1.3457,-1.3455,-1.3439,-1.3467,-1.3471,-1.3497,-1.3444,-1.354,-1.3544,-1.3547,-1.3596,-1.3605,-1.3612,0,0,0,0,0,-1.3458,-1.3494,-1.348,-1.3483,-1.3493,-1.351,-1.3511,-1.3492,-1.347,-1.3486,-1.3478,-1.3455,-1.3492,-1.3471,-1.3474,-1.3501,-1.3538,-1.3543,-1.3547,-1.3593,-1.3603,-1.3612,0,0,0,0,0,0,-1.3505,-1.3492,-1.3477,-1.3511,-1.3512,-1.3502,-1.3522,-1.3503,-1.3511,-1.3506,-1.3482,-1.3482,-1.3513,-1.3509,-1.3486,-1.3544,-1.3511,-1.3516,-1.3545,-1.3555,-1.3562,-1.3562,-1.3445,0,0,0,0,0,-1.3519,-1.3534,-1.3522,-1.3553,-1.3554,-1.3539,-1.3545,-1.3531,-1.3531,-1.3531,-1.3524,-1.3525,-1.3537,-1.3546,-1.3556,-1.3596,-1.3594,-1.3616,-1.3624,-1.363,-1.3635,-1.3657,-1.3667,-1.3563,-1.3563,-1.3563,0,0,-1.3548,-1.3543,-1.3554,-1.3562,-1.3561,-1.3578,-1.3539,-1.3557,-1.3569,-1.3534,-1.3559,-1.3555,-1.3555,-1.3589,-1.3603,-1.3587,-1.3663,-1.3635,-1.3641,-1.3642,-1.3662,-1.3672,-1.3681,-1.3566,-1.3565,-1.3565,0,0,-1.3611,-1.3608,-1.3634,-1.3634,-1.3634,-1.3623,-1.363,-1.3623,-1.3619,-1.3645,-1.3619,-1.3633,-1.3654,-1.3655,-1.3658,-1.3723,-1.3703,-1.3727,-1.3768,-1.379,-1.3798,-1.3805,-1.3829,-1.3838,-1.3732,-1.3732,-1.3732,0,-1.3647,-1.367,-1.365,-1.3671,-1.3676,-1.3645,-1.3672,-1.3673,-1.3676,-1.368,-1.3661,-1.3688,-1.3685,-1.372,-1.3736,-1.374,-1.3747,-1.3728,-1.3798,-1.3805,-1.3812,-1.3834,-1.3843,-1.3735,-1.3735,-1.3735,-1.3734,0,-1.3716,-1.3733,-1.3754,-1.3758,-1.3766,-1.3789,-1.3773,-1.3783,-1.3769,-1.3761,-1.3788,-1.3784,-1.3794,-1.3801,-1.3787,-1.3834,-1.3824,-1.3802,-1.3769,-1.3825,-1.3846,-1.3854,-1.374,-1.3738,-1.3738,-1.3737,0,0,-1.3806,-1.38,-1.3808,-1.3811,-1.3808,-1.3821,-1.3844,-1.3854,-1.3863,-1.3867,-1.3886,-1.3905,-1.3885,-1.3889,-1.3875,-1.3894,-1.3947,-1.387,-1.387,-1.3885,-1.4001,-1.4018,-1.4028,-1.3934,-1.3935,-1.3937,-1.4001,0,-1.3867,-1.3906,-1.3889,-1.3929,-1.3945,-1.3917,-1.3937,-1.3939,-1.3932,-1.3945,-1.3937,-1.3952,-1.3924,-1.3927,-1.3944,-1.3937,-1.397,-1.3932,-1.3952,-1.3953,-1.3953,-1.4039,-1.4056,-1.4117,-1.4009,-1.401,-1.4011,0,-1.3942,-1.395,-1.3992,-1.3989,-1.3995,-1.4013,-1.4021,-1.4034,-1.4035,-1.4029,-1.4035,-1.4017,-1.404,-1.4007,-1.4039,-1.4014,-1.4021,-1.4019,-1.4021,-1.4022,-1.3986,-1.4043,-1.4136,-1.4145,-1.4024,-1.4023,-1.4022,0,-1.4005,-1.4025,-1.4054,-1.4056,-1.4053,-1.4067,-1.4066,-1.4065,-1.4073,-1.408,-1.4085,-1.4095,-1.4101,-1.411,-1.4095,-1.4073,-1.413,-1.4095,-1.4126,-1.4127,-1.4139,-1.4139,-1.4235,-1.4144,-1.4143,-1.4143,-1.4143,0,-1.4074,-1.4102,-1.4082,-1.4099,-1.413,-1.4111,-1.4141,-1.4137,-1.4138,-1.4154,-1.4131,-1.4147,-1.4127,-1.4141,-1.413,-1.4159,-1.4162,-1.4158,-1.4155,-1.416,-1.4161,-1.4165,-1.416,-1.4146,-1.4145,-1.4145,-1.4144,0,-1.4149,-1.4137,-1.4166,-1.4161,-1.416,-1.4183,-1.4179,-1.4195,-1.4187,-1.4209,-1.4213,-1.4201,-1.4217,-1.4204,-1.4219,-1.4212,-1.4251,-1.4241,-1.425,-1.4248,-1.4279,-1.4277,-1.4382,-1.4395,-1.4295,-1.4296,-1.4297,0,-1.4194,-1.4215,-1.4212,-1.4222,-1.4223,-1.4239,-1.4246,-1.4229,-1.4238,-1.4243,-1.4259,-1.4273,-1.4284,-1.4311,-1.4304,-1.4316,-1.4307,-1.4343,-1.4309,-1.4314,-1.4308,-1.4308,-1.431,-1.435,-1.4351,-1.4352,-1.4353,0,-1.4276,-1.427,-1.4282,-1.4293,-1.4303,-1.431,-1.4316,-1.4326,-1.4308,-1.432,-1.4336,-1.4345,-1.4361,-1.4376,-1.4386,-1.4386,-1.4367,-1.4364,-1.4372,-1.4378,-1.4383,-1.4381,-1.427,-1.4362,-1.4361,-1.436,-1.436,-1.4359,-1.4338,-1.4355,-1.4357,-1.4372,-1.4374,-1.4381,-1.4396,-1.4391,-1.4405,-1.4417,-1.4406,-1.4427,-1.4429,-1.4441,-1.4443,-1.4459,-1.4444,-1.4455,-1.4458,-1.4461,-1.4466,-1.438,-1.446,-1.446,-1.446,-1.446,-1.446,0,-1.4419,-1.4419,-1.4433,-1.4442,-1.4454,-1.4436,-1.4442,-1.4453,-1.4472,-1.4476,-1.4487,-1.4507,-1.4521,-1.4516,-1.453,-1.4544,-1.4535,-1.4548,-1.4547,-1.4547,-1.4478,-1.447,-1.4554,-1.4554,-1.4554,-1.4554,-1.4554,-1.4554,-1.4463,-1.4492,-1.4486,-1.4516,-1.4516,-1.4536,-1.4541,-1.4547,-1.455,-1.4574,-1.4586,-1.4583,-1.4584,-1.4597,-1.461,-1.4608,-1.4615,-1.463,-1.4625,-1.4561,-1.4552,-1.4543,-1.4535,-1.4632,-1.4632,-1.4693,-1.4694,-1.4694]}]]